TimeCST,TemperatureF,Dew PointF,Humidity,Sea Level PressureIn,VisibilityMPH,Wind Direction,Wind SpeedMPH,Gust SpeedMPH,PrecipitationIn,Events,Conditions,WindDirDegrees,DateUTC
12:51 AM,48.9,39.0,69,30.27,10.0,North,13.8,20.7,N/A,,Partly Cloudy,350,2012-11-12 06:51:00
1:51 AM,46.4,37.4,71,30.30,10.0,North,11.5,-,N/A,,Clear,350,2012-11-12 07:51:00
2:51 AM,42.8,33.8,70,30.32,10.0,North,12.7,-,N/A,,Clear,350,2012-11-12 08:51:00
3:51 AM,41.0,33.1,73,30.34,10.0,NNW,10.4,-,N/A,,Clear,340,2012-11-12 09:51:00
4:51 AM,39.2,32.0,75,30.37,10.0,North,9.2,-,N/A,,Clear,350,2012-11-12 10:51:00
5:51 AM,37.4,30.2,75,30.40,10.0,NNW,10.4,-,N/A,,Clear,340,2012-11-12 11:51:00
6:51 AM,37.0,30.0,76,30.43,10.0,North,11.5,-,N/A,,Clear,350,2012-11-12 12:51:00
7:51 AM,39.9,28.9,65,30.47,10.0,North,12.7,-,N/A,,Clear,350,2012-11-12 13:51:00
8:51 AM,43.0,27.0,53,30.49,10.0,North,15.0,-,N/A,,Clear,10,2012-11-12 14:51:00
9:51 AM,46.9,24.1,41,30.50,10.0,North,13.8,19.6,N/A,,Clear,360,2012-11-12 15:51:00
10:51 AM,51.8,19.4,28,30.49,10.0,NNE,10.4,-,N/A,,Clear,30,2012-11-12 16:51:00
11:51 AM,55.0,19.9,25,30.48,10.0,NNE,12.7,-,N/A,,Clear,30,2012-11-12 17:51:00
12:51 PM,57.0,19.0,23,30.45,10.0,NNE,10.4,-,N/A,,Clear,30,2012-11-12 18:51:00
1:51 PM,57.9,16.0,19,30.44,10.0,North,11.5,18.4,N/A,,Clear,10,2012-11-12 19:51:00
2:51 PM,60.1,16.0,18,30.43,10.0,NNE,13.8,-,N/A,,Clear,20,2012-11-12 20:51:00
3:51 PM,59.0,15.1,18,30.44,10.0,North,11.5,-,N/A,,Clear,10,2012-11-12 21:51:00
4:51 PM,55.9,16.0,21,30.45,10.0,NE,10.4,-,N/A,,Clear,40,2012-11-12 22:51:00
5:51 PM,48.0,19.0,32,30.46,8.0,NE,4.6,-,N/A,,Clear,40,2012-11-12 23:51:00
6:51 PM,41.0,19.9,43,30.47,10.0,North,3.5,-,N/A,,Clear,360,2012-11-13 00:51:00
7:51 PM,39.9,21.0,47,30.48,10.0,North,5.8,-,N/A,,Clear,360,2012-11-13 01:51:00
8:51 PM,37.0,21.0,52,30.49,10.0,North,4.6,-,N/A,,Clear,10,2012-11-13 02:51:00
9:51 PM,37.0,21.0,52,30.49,10.0,North,4.6,-,N/A,,Clear,360,2012-11-13 03:51:00
10:51 PM,36.0,21.9,57,30.51,10.0,NNW,4.6,-,0.00,,Clear,330,2012-11-13 04:51:00
11:51 PM,35.1,21.9,59,30.51,10.0,NNW,3.5,-,N/A,,Clear,330,2012-11-13 05:51:00